Regional Weather Roundup
Issued by NWS

Home | Current Version | Previous Version | Text Only | Print | Product List | Glossary Off
Versions: 1 2 3 4 5 6 7 8 9 10 11 12 13 14 15 16 17 18 19 20 21 22 23 24 25 26 27 28 29 30 31 32 33 34 35 36 37 38 39 40 41 42 43 44 45 46 47 48 49 50

000
ASUS43 KBIS 130302
RWRND

NORTH DAKOTA REGIONAL WEATHER ROUNDUP
NATIONAL WEATHER SERVICE BISMARCK ND
900 PM CST TUE DEC 12 2017

NOTE: "FAIR" INDICATES FEW OR NO CLOUDS BELOW 12,000 FEET WITH NO
SIGNIFICANT WEATHER AND/OR OBSTRUCTIONS TO VISIBILITY.


NDZ001>003-009>011-017-130400-
NORTHWEST NORTH DAKOTA

CITY           SKY/WX    TMP DP  RH WIND       PRES   REMARKS
WILLISTON      CLOUDY    48  27  44 NW36G46   29.71R
MINOT          CLOUDY    46  23  40 W30G44    29.54R
MINOT AFB      CLOUDY    44  25  46 NW28G41   29.52R
$$

NDZ018>021-031>035-040>046-130400-
SOUTHWEST NORTH DAKOTA

CITY           SKY/WX    TMP DP  RH WIND       PRES   REMARKS
BISMARCK       CLOUDY    49  19  30 W14       29.59F
DICKINSON      CLOUDY    47  18  31 W28G36    29.68S
GARRISON         N/A     46  18  32 NW22G35   29.56F
HETTINGER ARPT CLOUDY    50  13  22 W29G37    29.73F
$$

NDZ004>008-012>016-024-026-027-054-130400-
NORTHEAST NORTH DAKOTA

CITY           SKY/WX    TMP DP  RH WIND       PRES   REMARKS
GRAND FORKS    CLOUDY    30  28  92 S9        29.47F
GRND FRKS AFB  CLOUDY    35  29  77 W8        29.46F
DEVILS LAKE    CLOUDY    37  28  70 W13       29.46F
$$

NDZ022-023-025-028>030-036>039-047>053-130400-
SOUTHEAST NORTH DAKOTA

CITY           SKY/WX    TMP DP  RH WIND       PRES   REMARKS
FARGO          PTCLDY    35  29  78 S10       29.53F
JAMESTOWN      CLOUDY    39  29  67 W8        29.51F
$$





USA.gov is the U.S. government's official web portal to all federal, state and local government web resources and services.